This demonstration page uses our WeatherBlox Daily Observations layout. Learn more.

Left ArrowRight Arrow

39.92423, -83.80882

Hourly Observations for October 11, 2020

Temp ( °F °C ) Dew Point ( °F °C ) Humidity (%) Winds ( mph kmh ) Pressure ( in mb ) Visibility ( mi km ) Precip ( " mm )
12:08 am 00:08 Clear with Mist and Fog 61 16 61 16 100 100 SSE 6 9 29.97 1015 4 6.43736 0 0
12:39 am 00:39 Clear with Mist and Fog 59 15 59 15 100 100 ESE 3 6 29.96 1015 2 3.21868 0 0
12:56 am 00:56 Clear with Mist and Fog 60 15.6 60 15.6 100 100 ESE 3 6 29.96 1015 2 3.21868 0 0
1:05 am 01:05 Mostly Clear with Mist and Fog 59 15 59 15 100 100 SSE 3 6 29.97 1015 1.5 2.41401 0 0
1:26 am 01:26 Mostly Clear with Mist and Fog 61 16 61 16 100 100 S 3 6 29.97 1015 3 4.82802 0 0
1:56 am 01:56 Mostly Clear with Mist and Fog 61 16.1 61 16.1 100 100 Calm 29.97 1015 4 6.43736 0 0
2:29 am 02:29 Partly Cloudy with Mist and Fog 61 16 61 16 100 100 Calm 29.96 1014 1.5 2.41401 0 0
2:31 am 02:31 Mostly Cloudy with Mist and Fog 59 15 59 15 100 100 ESE 3 6 29.96 1015 0.75 1.207005 0 0
2:39 am 02:39 Mostly Cloudy with Fog 59 15 59 15 100 100 Calm 29.96 1015 0.5 0.80467 0 0
2:56 am 02:56 Cloudy with Fog 58 14.4 58 14.4 100 100 ESE 3 6 29.96 1015 0.25 0.402335 0 0
3:20 am 03:20 Cloudy with Fog 57 14 57 14 100 100 E 5 7 29.96 1014 0.5 0.80467 0 0
3:56 am 03:56 Cloudy with Fog 58 14.4 58 14.4 100 100 ENE 5 7 29.95 1014 0.5 0.80467 0 0
4:03 am 04:03 Mostly Cloudy with Mist and Fog 57 14 57 14 100 100 ENE 5 7 29.96 1014 1 1.60934 0 0
4:10 am 04:10 Mostly Cloudy with Mist and Fog 57 14 57 14 100 100 E 3 6 29.96 1014 2 3.21868 0 0
4:19 am 04:19 Partly Cloudy with Mist and Fog 59 15 59 15 100 100 E 3 6 29.95 1014 3 4.82802 0 0
4:31 am 04:31 Mostly Cloudy with Mist and Fog 57 14 57 14 100 100 ENE 5 7 29.96 1014 2.5 4.02335 0 0
4:41 am 04:41 Mostly Cloudy with Mist and Fog 57 14 57 14 100 100 E 5 7 29.96 1014 3 4.82802 0 0
4:56 am 04:56 Cloudy with Mist and Fog 59 15 59 15 100 100 E 5 7 29.95 1014 4 6.43736 0 0
5:35 am 05:35 Mostly Cloudy with Mist and Fog 59 15 59 15 100 100 ESE 6 9 29.95 1014 5 8.0467 0 0
5:56 am 05:56 Mostly Cloudy with Mist and Fog 59 15 59 15 100 100 ENE 6 9 29.96 1014 6 9.65604 0 0
6:06 am 06:06 Mostly Clear with Mist and Fog 59 15 59 15 100 100 ENE 5 7 29.95 1014 5 8.0467 0 0
6:56 am 06:56 Cloudy with Mist and Fog 59 15 59 15 100 100 E 5 7 29.96 1015 4 6.43736 0 0
7:24 am 07:24 Cloudy with Mist and Fog 59 15 59 15 100 100 ENE 9 15 29.95 1014 1.75 2.816345 0 0
7:29 am 07:29 Cloudy with Light Rain 61 16 61 16 100 100 ENE 9 15 29.95 1014 0.75 1.207005 0.001 0.001
7:38 am 07:38 Cloudy with Light Rain 61 16 61 16 100 100 ENE 7 11 29.95 1014 0.5 0.80467 0.001 0.001
7:51 am 07:51 Cloudy with Light Rain 61 16 61 16 100 100 ENE 7 11 29.95 1014 0.25 0.402335 0.001 0.001
7:56 am 07:56 Cloudy with Light Rain 60 15.6 60 15.6 100 100 ENE 7 11 29.96 1014 0.25 0.402335 0.001 0.001
8:47 am 08:47 Cloudy with Fog 61 16 61 16 100 100 NE 9 15 29.96 1014 0.5 0.80467 0.001 0.001
8:56 am 08:56 Cloudy with Fog 62 16.7 62 16.7 100 100 ENE 8 13 29.97 1015 0.5 0.80467 0.001 0.001
9:05 am 09:05 Cloudy with Mist and Fog 63 17 63 17 100 100 ENE 7 11 29.96 1015 0.75 1.207005 0 0
9:14 am 09:14 Cloudy with Mist and Fog 63 17 63 17 100 100 ENE 8 13 29.96 1015 1.25 2.011675 0 0
9:32 am 09:32 Cloudy with Mist and Fog 63 17 63 17 100 100 E 8 13 29.96 1015 2 3.21868 0 0
9:56 am 09:56 Cloudy with Mist and Fog 63 17.2 63 17.2 100 100 E 7 11 29.98 1015 3 4.82802 0 0
10:56 am 10:56 Cloudy 65 18.3 65 18.3 100 100 E 9 15 29.98 1015 7 11.26538 0 0
11:11 am 11:11 Cloudy 64 18 64 18 100 100 E 13 20 29.97 1015 8 12.87472 0 0
11:56 am 11:56 Cloudy 66 18.9 66 18.9 100 100 E 12 19 29.98 1015 9 14.48406 0 0
12:52 pm 12:52 Cloudy 66 19 66 19 100 100 E 13 20 29.95 1014 10 16.0934 0 0
12:56 pm 12:56 Cloudy 67 19.4 66 18.9 97 97 E 13 20 29.97 1015 10 16.0934 0 0
1:56 pm 13:56 Mostly Cloudy 70 21.1 65 18.3 84 84 E 13 20 29.94 1014 10 16.0934 0 0
2:56 pm 14:56 Cloudy 70 21.1 64 17.8 82 82 E 14 22 29.93 1014 10 16.0934 0 0
3:56 pm 15:56 Cloudy 70 21.1 64 17.8 82 82 E 12 19 29.93 1014 10 16.0934 0 0
4:56 pm 16:56 Mostly Cloudy 71 21.7 65 18.3 81 81 E 10 17 29.91 1013 10 16.0934 0 0
5:07 pm 17:07 Partly Cloudy 72 22 64 18 78 78 E 13 20 29.88 1012 10 16.0934 0 0
5:29 pm 17:29 Mostly Cloudy 70 21 64 18 83 83 ENE 8 13 29.89 1012 10 16.0934 0 0
5:56 pm 17:56 Mostly Cloudy 70 21.1 64 17.8 82 82 ENE 12 19 29.91 1013 10 16.0934 0 0
6:09 pm 18:09 Partly Cloudy 70 21 64 18 83 83 E 7 11 29.9 1012 10 16.0934 0 0
6:29 pm 18:29 Mostly Cloudy 70 21 64 18 83 83 ENE 8 13 29.89 1012 10 16.0934 0 0
6:56 pm 18:56 Mostly Cloudy 68 20 63 17.2 84 84 E 7 11 29.92 1013 10 16.0934 0 0
7:16 pm 19:16 Partly Cloudy 64 18 63 17 94 94 E 3 6 29.91 1013 10 16.0934 0 0
7:56 pm 19:56 Mostly Cloudy 62 16.7 62 16.7 100 100 NE 6 9 29.94 1014 10 16.0934 0 0
8:44 pm 20:44 Mostly Cloudy 63 17 63 17 100 100 NE 7 11 29.93 1014 10 16.0934 0 0
8:56 pm 20:56 Cloudy 64 17.8 64 17.8 100 100 NE 8 13 29.95 1014 10 16.0934 0 0
9:14 pm 21:14 Cloudy 64 18 64 18 100 100 ENE 8 13 29.93 1014 10 16.0934 0 0
9:56 pm 21:56 Cloudy 65 18.3 65 18.3 100 100 ENE 9 15 29.93 1014 10 16.0934 0 0
10:03 pm 22:03 Cloudy 64 18 64 18 100 100 ENE 10 17 29.92 1013 10 16.0934 0 0
10:56 pm 22:56 Mostly Cloudy 63 17.2 63 17.2 100 100 ENE 7 11 29.93 1014 9 14.48406 0 0
11:06 pm 23:06 Cloudy 63 17 63 17 100 100 ENE 6 9 29.91 1013 9 14.48406 0 0
11:56 pm 23:56 Cloudy 64 17.8 64 17.8 100 100 ENE 8 13 29.92 1013 9 14.48406 0 0

Powered by AerisWeather